Regional Weather Roundup
Issued by NWS Albany, NY

Home | Current Version | Previous Version | Text Only | Print | Product List | Glossary On
Versions: 1 2 3 4 5 6 7 8 9 10 11 12 13 14 15 16 17 18 19 20 21 22 23 24 25 26 27 28 29 30 31 32 33 34 35 36 37 38 39 40 41 42 43 44 45 46 47 48 49 50
000
ASUS41 KALY 300210
RWRALY

NEW YORK STATE HOURLY WEATHER ROUNDUP
NATIONAL WEATHER SERVICE ALBANY NY
1000 PM EDT WED JUL 29 2015

NOTE: "FAIR" INDICATES FEW OR NO CLOUDS BELOW 12,000 FEET WITH NO
SIGNIFICANT WEATHER AND/OR NO OBSTRUCTIONS TO VISIBILITY.

NYZ032-033-038>043-046>054-057>066-NYZ062>081-300300-
EAST


CITY           SKY/WX    TMP DP  RH WIND       PRES   REMARKS
ALBANY         PTCLDY    78  65  63 CALM      29.89S
GLENS FALLS    CLEAR     73  65  75 CALM      29.89R
POUGHKEEPSIE   CLEAR     77  68  73 CALM      29.91R
NEWBURGH       CLEAR     79  66  65 CALM      29.94S
MONTGOMERY     CLEAR     74  68  81 CALM      29.93R
WHITE PLAINS   CLEAR     77  71  82 CALM      29.94R
ISLIP          PTCLDY    79  72  79 SW9       29.93R
NEW YORK CITY  PTCLDY    86  71  60 SW10      29.92R HX  91
CENTRAL PARK   CLEAR     86  70  58 VRB7      29.96R HX  90
$$

NYZ005>009-017-018-044>046-055-056-300300-
CENTRAL


CITY           SKY/WX    TMP DP  RH WIND       PRES   REMARKS
FULTON         PTCLDY    73  69  87 VRB3      29.87S
SYRACUSE       PTCLDY    80  64  58 S5        29.87S
ROME           CLEAR     75  69  81 NE5       29.90R
ELMIRA         PTCLDY    72  68  87 CALM      29.92R
BINGHAMTON     CLEAR     75  62  64 SW7       29.97R
MONTICELLO     CLEAR     75  66  73 SW3       29.99S
$$

NYZ026>034-041>043-300300-
NORTH


CITY           SKY/WX    TMP DP  RH WIND       PRES   REMARKS
WATERTOWN      NOT AVBL
FORT DRUM      NOT AVBL
MASSENA        CLEAR     72  63  73 CALM      29.85S
SARANAC LAKE   CLEAR     67  64  90 CALM      29.94R
PLATTSBURGH    CLEAR     71  70  96 CALM      29.86R FOG
$$

NYZ001>004-010>016-019>021-300300-
WEST


CITY           SKY/WX    TMP DP  RH WIND       PRES   REMARKS
NIAGARA FALLS  MOCLDY    79  65  62 SW9       29.85S
BUFFALO        MOCLDY    80  70  71 S7        29.87S
DUNKIRK        CLOUDY    76  69  79 S3        29.88F
JAMESTOWN      CLOUDY    72  64  78 S3        29.96S
WELLSVILLE     PTCLDY    77  66  68 VRB6      30.00S
ROCHESTER      MOCLDY    80  66  62 CALM      29.87R
PENN YAN       PTCLDY    77  65  66 S5        29.91S
$$

             KEY
       WCI = WIND CHILL INDEX
       VSB = VISIBILITY
       HX  = HEAT INDEX
$$



USA.gov is the U.S. government's official web portal to all federal, state and local government web resources and services.